Flag for USA

Past Weather in Kansas City, Missouri, USA — Yesterday and Last 2 Weeks

Now
78 °F

Partly sunny.


Feels Like: 80 °F
Forecast: 85 / 74 °F
Wind: 10 mph from Northeast

Location: Kansas City Downtown Airport

Current Time: Jul 4, 2020 at 10:12:14 am

Latest Report: Jul 4, 2020 at 8:54 am


Visibility: 10 mi

Pressure: 29.97 "Hg

Humidity: 76%

Dew Point: 70 °F

Location of Kansas CityLocation

Past Weather in Kansas City — Graph

°F

Kansas City Temperature Yesterday

Maximum temperature yesterday: 91 °F (at 1:54 pm)
Minimum temperature yesterday: 74 °F (at 5:54 am)
Average temperature yesterday: 81 °F

High & Low Weather Summary for the Past Weeks

 TemperatureHumidityPressure
High92 °F (Jun 25, 5:54 pm)93% (Jun 27, 4:03 am)30.02 "Hg (Jun 27, 4:03 am)
Low62 °F (Jun 24, 3:54 am)32% (Jun 23, 5:54 pm)29.64 "Hg (Jun 28, 6:54 pm)
Average79 °F67%29.85 "Hg
* Reported Jun 19 8:32 am — Jul 4 8:28 am, Kansas City. Weather by CustomWeather, © 2020

Note: Actual official high and low records may vary slightly from our data, if they occured in-between our weather recording intervals... More about our weather records

Kansas City Weather History for the Previous 24 Hours

Scroll right to see more
 ConditionsComfort  
Time TempWeatherWind HumidityBarometerVisibility
8:28 am
Sat, Jul 4
78 °FPartly sunny.8 mph74%30.00 "Hg10 mi
8:10 am78 °FMostly cloudy.8 mph74%30.00 "Hg10 mi
7:20 am76 °FOvercast.5 mph82%29.99 "Hg10 mi
6:54 am76 °FMostly cloudy.5 mph82%29.96 "Hg10 mi
6:13 am76 °FPartly sunny.3 mph82%29.99 "Hg10 mi
5:54 am76 °FPassing clouds.6 mph82%29.95 "Hg10 mi
4:54 am76 °FOvercast.5 mph85%29.95 "Hg10 mi
4:38 am76 °FPassing clouds.No wind85%29.97 "Hg10 mi
3:54 am76 °FPassing clouds.7 mph82%29.94 "Hg10 mi
2:54 am76 °FClear.5 mph82%29.96 "Hg10 mi
1:54 am78 °FClear.6 mph76%29.95 "Hg10 mi
12:54 am79 °FClear.7 mph74%29.96 "Hg10 mi
11:54 pm
Fri, Jul 3
80 °FClear.8 mph74%29.96 "Hg10 mi
10:54 pm81 °FClear.9 mph72%29.96 "Hg10 mi
9:54 pm82 °FClear.6 mph72%29.95 "Hg10 mi
8:54 pm78 °FClear.No wind82%29.94 "Hg10 mi
7:54 pm78 °FSunny.N/A79%29.94 "Hg10 mi
6:54 pm78 °FSunny.5 mph76%29.93 "Hg10 mi
5:54 pm77 °FPassing clouds.N/A79%29.95 "Hg10 mi
4:54 pm80 °FPartly sunny.10 mph71%29.96 "Hg10 mi
3:54 pm88 °FSunny.7 mph50%29.93 "Hg10 mi
2:54 pm89 °FPassing clouds.9 mph52%29.94 "Hg10 mi
1:54 pm91 °FSunny.7 mph52%29.96 "Hg10 mi
12:54 pm89 °FPassing clouds.8 mph53%29.97 "Hg10 mi
12:01 pm88 °FPassing clouds.7 mph59%30.02 "Hg10 mi
11:01 am86 °FScattered clouds.3 mph63%30.02 "Hg10 mi
Weather by CustomWeather, © 2020

See weather overview